This is the latest recevied weather packets stored in our database for station/object KF4UQS-14. If no packets are shown the sender has not sent any weather packets the latest 10 day(s).
| Time | Temp. | Humidity | Pressure | Rain* | Wind** | Luminosity | Snow |
|---|---|---|---|---|---|---|---|
| 1778296419 | 12.22° C | 85% | 1016.7 hPa | 0 mm | - | 0 W/m² | - |
| 1778296116 | 12.22° C | 83% | 1016.8 hPa | 0 mm | - | 0 W/m² | - |
| 1778295814 | 12.78° C | 82% | 1017 hPa | 0 mm | - | 0 W/m² | - |
| 1778295510 | 12.78° C | 81% | 1016.9 hPa | 0 mm | - | 0 W/m² | - |
| 1778295205 | 12.78° C | 82% | 1017 hPa | 0 mm | - | 0 W/m² | - |
| 1778294901 | 12.78° C | 82% | 1016.7 hPa | 0 mm | - | 0 W/m² | - |
| 1778294598 | 12.78° C | 81% | 1016.7 hPa | 0 mm | - | 0 W/m² | - |
| 1778294295 | 12.78° C | 80% | 1016.7 hPa | 0 mm | - | 0 W/m² | - |
| 1778293992 | 13.33° C | 78% | 1016.7 hPa | 0 mm | - | 0 W/m² | - |
| 1778293688 | 13.33° C | 76% | 1016.9 hPa | 0 mm | - | 0 W/m² | - |
| 1778293386 | 13.89° C | 75% | 1016.8 hPa | 0 mm | - | 0 W/m² | - |
| 1778293083 | 13.89° C | 74% | 1016.8 hPa | 0 mm | - | 0 W/m² | - |
| 1778292780 | 13.89° C | 73% | 1017 hPa | 0 mm | - | 0 W/m² | - |
| 1778292477 | 13.33° C | 73% | 1016.8 hPa | 0 mm | - | 0 W/m² | - |
| 1778292175 | 13.33° C | 73% | 1017 hPa | 0 mm | - | 0 W/m² | - |
| 1778291873 | 13.33° C | 74% | 1016.7 hPa | 0 mm | - | 0 W/m² | - |
| 1778291571 | 13.89° C | 71% | 1016.6 hPa | 0 mm | - | 0 W/m² | - |
| 1778291267 | 13.33° C | 71% | 1016.7 hPa | 0 mm | - | 0 W/m² | - |
| 1778290964 | 13.33° C | 71% | 1016.4 hPa | 0 mm | - | 0 W/m² | - |
| 1778290660 | 12.78° C | 72% | 1016.5 hPa | 0 mm | - | 0 W/m² | - |
| 1778290356 | 13.33° C | 72% | 1016.3 hPa | 0 mm | - | 0 W/m² | - |
| 1778290053 | 13.33° C | 75% | 1016.3 hPa | 0 mm | - | 0 W/m² | - |
| 1778289750 | 13.33° C | 71% | 1016.3 hPa | 0 mm | - | 0 W/m² | - |
| 1778289447 | 13.33° C | 72% | 1016.2 hPa | 0 mm | - | 0 W/m² | - |
| 1778289145 | 13.33° C | 72% | 1016.2 hPa | 0 mm | - | 0 W/m² | - |
* Rain latest hour (hover to see other rain measurements)
** Current wind speed in m/s (hover to see current wind gust speed)